Location: New Frontier Mobile Home Park
(32.8448°N, 116.9675°W)
Time: 22:11:04
(UTC+00:00)

ERS-1 Rocket - Pass Details

Date: 14 July 2020
Orbit: 752 x 758 km, 98.5° (Epoch: 05 August)

Event Time Altitude Azimuth Distance (km) Brightness Sun altitude
Exits shadow 04:56:29 33° 88° (E) 1,251 3.7 -21.0°
Maximum altitude 04:57:07 35° 71° (ENE) 1,220 3.8 -21.1°
Drops below altitude 10° 05:01:39 10° 7° (N) 2,289 6.0 -21.8°
Sets 05:04:07 0° 359° (N) 3,217 7.0 -22.1°
